• Join FlightAware (Why Join?)
  • Login
  • US Flag GB Flag 
13:55 EDT


 

Airport Tracker/Info


-or-


 

Live Flight TrackerFlight Track Log ✈ SKW4664 ✈ 21-Jun-2013 ✈ KSLC - KSAN

Flight Track Log - Related Links

Times and Time Zones

All times are in EDT time to prevent confusion due to time zone crossing. See the SKW4664 flight status page for this flight to view local times or setup timezone preferences in your user account.

Time Position Orientation Groundspeed Altitude Reporting Facility
EDT Latitude Longitude Course Direction KTS MPH feet Rate Location/Type
11:04 40.8108 -112.0006 189° South 177 204 4,900  Level Salt Lake Center
11:05 40.8303 -112.0861 287° West 220 253 7,300 1,860 Climbing Salt Lake Center
11:06 40.8158 -112.1806 259° West 265 305 9,600 2,280 Climbing Salt Lake Center
11:07 40.5793 -112.2958 186° South  Level FlightAware Approximate
11:07 40.7708 -112.2589 233° Southwest 288 331 12,100  Level Salt Lake Center
11:08 40.4731 -112.3221 189° South  Level FlightAware Approximate
11:08 40.6769 -112.2931 195° South 290 334 15,400  Level Salt Lake Center
11:09 40.3662 -112.3435 189° South  Level FlightAware Approximate
11:09 40.5914 -112.3069 187° South 310 357 17,300  Level Salt Lake Center
11:10 40.5033 -112.3250 189° South 319 367 19,500 1,860 Climbing Salt Lake Center
11:11 40.4139 -112.3442 189° South 328 377 21,200 1,680 Climbing Salt Lake Center
11:12 40.3225 -112.3711 193° South 336 387 23,000 1,620 Climbing Salt Lake Center
11:13 40.2400 -112.4297 208° Southwest 339 390 24,600 1,620 Climbing Salt Lake Center
11:14 40.1378 -112.5022 208° Southwest 351 404 26,400 1,440 Climbing Salt Lake Center
11:15 40.0506 -112.5642 209° Southwest 358 412 27,700 1,200 Climbing Salt Lake Center
11:17 39.9608 -112.6247 207° Southwest 363 418 29,000 1,080 Climbing Salt Lake Center
11:18 39.8703 -112.6897 209° Southwest 371 427 30,000 960 Climbing Salt Lake Center
11:19 39.7767 -112.7556 208° Southwest 380 437 31,000 960 Climbing Salt Lake Center
11:20 39.6803 -112.8206 207° Southwest 393 452 32,000 480 Climbing Salt Lake Center
11:21 39.5494 -112.8586 193° South 402 463 32,000  Level Salt Lake Center
11:22 39.4386 -112.8992 196° South 412 474 32,000  Level Salt Lake Center
11:23 39.3289 -112.9350 194° South 409 471 32,000  Level Salt Lake Center
11:24 39.2192 -112.9700 194° South 408 470 32,000  Level Salt Lake Center
11:25 39.1108 -113.0081 195° South 406 467 32,000 120 Level Salt Lake Center
11:26 38.9803 -113.0467 193° South 403 464 32,300 720 Climbing Salt Lake Center
11:27 38.8694 -113.0825 194° South 408 470 33,500 1,080 Climbing Salt Lake Center
11:28 38.7600 -113.1169 194° South 408 470 34,600 960 Climbing Salt Lake Center
11:29 38.6519 -113.1511 194° South 404 465 35,500 660 Climbing Salt Lake Center
11:30 38.5433 -113.1853 194° South 402 463 36,000 240 Climbing Salt Lake Center
11:31 38.4339 -113.2217 195° South 406 467 36,000  Level Salt Lake Center
11:32 38.3028 -113.2625 194° South 406 467 36,000  Level Salt Lake Center
11:33 38.1925 -113.2964 194° South 409 471 36,000  Level Salt Lake Center
11:34 38.0814 -113.3308 194° South 412 474 36,000  Level Salt Lake Center
11:35 37.9731 -113.3644 194° South 408 470 36,000  Level Salt Lake Center
11:36 37.8719 -113.4103 200° South 395 455 36,000  Level Salt Lake Center
11:37 37.7664 -113.4939 212° Southwest 377 434 36,000  Level Salt Lake Center
11:38 37.6792 -113.5631 212° Southwest 374 430 36,000  Level Salt Lake Center
11:39 37.5931 -113.6317 212° Southwest 370 426 36,000  Level Salt Lake Center
11:40 37.5067 -113.7000 212° Southwest 369 425 36,000  Level Salt Lake Center
11:41 37.4194 -113.7644 210° Southwest 367 422 36,000  Level Salt Lake Center
11:42 37.3267 -113.8228 207° Southwest 372 428 36,000  Level Salt Lake Center
11:43 37.2169 -113.8928 207° Southwest 371 427 36,000  Level Salt Lake Center
11:44 37.1258 -113.9506 207° Southwest 369 425 36,000  Level Salt Lake Center
11:45 37.0325 -114.0089 207° Southwest 373 429 36,000  Level Salt Lake Center
11:46 36.9889 -114.0356 206° Southwest 374 430 36,000  Level Los Angeles Center
11:47 36.8953 -114.0931 206° Southwest 374 430 36,000  Level Los Angeles Center
11:48 36.7994 -114.1531 207° Southwest 381 438 36,000  Level Los Angeles Center
11:49 36.6928 -114.2192 206° Southwest 381 438 36,000  Level Los Angeles Center
11:50 36.5897 -114.2844 207° Southwest 383 441 36,000  Level Los Angeles Center
11:51 36.4928 -114.3442 206° Southwest 386 444 36,000  Level Los Angeles Center
11:52 36.3958 -114.4036 206° Southwest 386 444 36,000  Level Los Angeles Center
11:53 36.2983 -114.4642 207° Southwest 389 448 36,000  Level Los Angeles Center
11:54 36.2003 -114.5247 206° Southwest 392 451 36,000  Level Los Angeles Center
11:55 36.0822 -114.5964 206° Southwest 392 451 36,000  Level Los Angeles Center
11:56 35.9825 -114.6567 206° Southwest 395 455 36,000  Level Los Angeles Center
11:57 35.8861 -114.7172 207° Southwest 390 449 36,000  Level Los Angeles Center
11:58 35.7917 -114.7744 206° Southwest 381 438 36,000  Level Los Angeles Center
11:59 35.6989 -114.8308 206° Southwest 373 429 36,000  Level Los Angeles Center
12:00 35.6053 -114.8867 206° Southwest 373 429 36,000  Level Los Angeles Center
12:01 35.4914 -114.9544 206° Southwest 376 433 36,000  Level Los Angeles Center
12:03 35.3944 -115.0136 206° Southwest 385 443 36,000  Level Los Angeles Center
12:04 35.2953 -115.0733 206° Southwest 393 452 36,000  Level Los Angeles Center
12:05 35.1939 -115.1333 206° Southwest 399 459 36,000  Level Los Angeles Center
12:06 35.0964 -115.1925 206° Southwest 394 453 36,000  Level Los Angeles Center
12:07 34.9986 -115.2486 205° Southwest 385 443 36,000  Level Los Angeles Center
12:08 34.9017 -115.2933 201° Southwest 378 435 36,000  Level Los Angeles Center
12:09 34.7839 -115.3475 201° Southwest 377 434 36,000 -720 Level Los Angeles Center
12:10 34.6842 -115.3975 202° Southwest 384 442 34,600 -1,440 Descending Los Angeles Center
12:11 34.5789 -115.4475 201° Southwest 386 444 33,000 -1,500 Descending Los Angeles Center
12:12 34.4772 -115.4964 202° Southwest 390 449 31,500 -1,500 Descending Los Angeles Center
12:13 34.3744 -115.5433 201° Southwest 394 453 30,000 -1,500 Descending Los Angeles Center
12:14 34.2714 -115.5911 201° Southwest 396 456 28,400 -1,020 Descending Los Angeles Center
12:15 34.1675 -115.6425 202° Southwest 400 460 28,000 -240 Descending Los Angeles Center
12:16 34.0425 -115.6983 200° South 400 460 28,000  Level Los Angeles Center
12:17 33.9389 -115.7472 201° Southwest 401 461 28,000  Level Los Angeles Center
12:18 33.8356 -115.7956 201° Southwest 398 458 28,000 -120 Level Los Angeles Center
12:19 33.7333 -115.8439 201° Southwest 396 456 27,800 -1,080 Descending Los Angeles Center
12:20 33.6331 -115.8900 201° Southwest 387 445 25,800 -1,860 Descending Los Angeles Center
12:21 33.5367 -115.9344 201° Southwest 373 429 24,000 -900 Descending Los Angeles Center
12:22 33.4622 -116.0347 228° Southwest 338 389 24,000  Level Los Angeles Center
12:23 33.4125 -116.1228 236° Southwest 323 372 24,000 -720 Level Los Angeles Center
12:24 33.3619 -116.2108 236° Southwest 324 373 22,600 -1,740 Descending Los Angeles Center
12:25 33.2900 -116.2764 217° Southwest 339 390 20,500 -2,220 Descending Los Angeles Center
12:26 33.2078 -116.3264 207° Southwest 335 386 18,000 -2,640 Descending Los Angeles Center
12:27 33.1075 -116.3853 206° Southwest 335 386 15,000 -2,640 Descending Los Angeles Center
12:28 33.0253 -116.4331 206° Southwest 333 383 12,600 -1,500 Descending Los Angeles Center
12:29 32.9447 -116.4797 206° Southwest 325 374 12,000 -540 Descending Los Angeles Center
12:30 32.8700 -116.5236 206° Southwest 297 342 11,500 -1,140 Descending Los Angeles Center
12:32 32.8108 -116.6022 228° Southwest 293 337 9,700 -1,500 Descending Los Angeles Center
12:33 32.7719 -116.6819 240° Southwest 282 325 8,400 -1,380 Descending Los Angeles Center
12:34 32.7350 -116.7592 240° Southwest 274 315 6,900 -1,260 Descending Los Angeles Center
12:35 32.6994 -116.8386 242° Southwest 274 315 5,800 -1,080 Descending Los Angeles Center
12:36 32.6833 -116.9167 256° West 244 281 4,800 -1,080 Descending Southern California TRACON
12:37 32.6833 -116.9833 270° West 213 245 3,800 -1,140 Descending Southern California TRACON
12:38 32.7000 -117.0500 287° West 189 217 2,600 -1,080 Descending Southern California TRACON
12:39 32.7167 -117.1000 292° West 155 178 1,700 -900 Descending Southern California TRACON
12:39 32.7167 -117.1333 270° West 135 155 900 -660 Descending Southern California TRACON
12:41 32.7353 -117.1933 290° West 137 158 200 -540 Descending Los Angeles Center
12:43 32.7333 -117.1833 North  Level FlightAware Approximate
12:50 32.7336 -117.1897 North  Level Estimated